Regional Weather Roundup
Issued by NWS

Home | Current Version | Previous Version | Graphics & Text | Print | Product List | Glossary Off
Versions: 1 2 3 4 5 6 7 8 9 10 11 12 13 14 15 16 17 18 19 20 21 22 23 24 25 26 27 28 29 30 31 32 33 34 35 36 37 38 39 40 41 42 43 44 45 46 47 48 49 50

000
ASUS43 KMKX 270621
RWRWI

WISCONSIN REGIONAL WEATHER ROUNDUP
NATIONAL WEATHER SERVICE MILWAUKEE/SULLIVAN WI
100 AM CDT FRI MAR 27 2015

NOTE: "FAIR" INDICATES FEW OR NO CLOUDS BELOW 12,000 FEET WITH NO
SIGNIFICANT WEATHER AND/OR OBSTRUCTIONS TO VISIBILITY.

WIZ001-002-006>008-014>016-023>028-270700-
NORTHWEST WISCONSIN

CITY           SKY/WX    TMP DP  RH WIND       PRES   REMARKS
SUPERIOR ARPT  CLEAR     21   3  45 NE9G18    30.27R WCI  11
6HR MIN TEMP:  21; 6HR MAX TEMP:  29;

ASHLAND        CLEAR     17   7  64 N7        30.24R WCI   8
6HR MIN TEMP:  16; 6HR MAX TEMP:  24;

HAYWARD        CLEAR     15   8  73 CALM      30.20R
6HR MIN TEMP:  15; 6HR MAX TEMP:  27;

SIREN          CLEAR     20   2  45 N3        30.23S
6HR MIN TEMP:  20; 6HR MAX TEMP:  30;

CUMBERLAND     CLEAR     19   5  53 N6        30.19S WCI  11
RICE LAKE      CLEAR     20   8  59 N3        30.21S
6HR MIN TEMP:  19; 6HR MAX TEMP:  31;

CHETEK         CLEAR     19   7  60 CALM      30.20S
6HR MIN TEMP:  19; 6HR MAX TEMP:  30;

LADYSMITH      CLEAR     16   9  74 NW6       30.19S WCI   7
6HR MIN TEMP:  17; 6HR MAX TEMP:  29;

EAU CLAIRE     CLEAR     20   7  57 NE5       30.20R WCI  13
6HR MIN TEMP:  19; 6HR MAX TEMP:  31;

MENOMONIE      CLEAR     23   7  51 N3        30.20S
6HR MIN TEMP:  22; 6HR MAX TEMP:  33;

NEW RICHMOND   CLEAR     20   8  60 N5        30.22R WCI  14
6HR MIN TEMP:  20; 6HR MAX TEMP:  32;

OSCEOLA        CLEAR     24   5  44 N3        30.26R
6HR MIN TEMP:  23; 6HR MAX TEMP:  33;

$$

WIZ003>005-009-010-017-018-270700-
NORTH CENTRAL WISCONSIN

CITY           SKY/WX    TMP DP  RH WIND       PRES   REMARKS
MANITOWISH WTR CLOUDY    15   6  68 N6        30.12R WCI   6
6HR MIN TEMP:   9; 6HR MAX TEMP:  19;

ARBOR VITAE    PTCLDY     8   3  80 CALM      30.11S
6HR MIN TEMP:   8; 6HR MAX TEMP:  19;

WOODRUFF       PTCLDY     8   3  80 CALM      30.11S
6HR MIN TEMP:   8; 6HR MAX TEMP:  19;

RHINELANDER    CLOUDY    13   5  70 NW5       30.10F WCI   5
6HR MIN TEMP:   4; 6HR MAX TEMP:  20;

EAGLE RIVER    FLURRIES  12   7  79 N3        30.10S
6HR MIN TEMP:   8; 6HR MAX TEMP:  18;

LAND O LAKES   CLOUDY    12   8  83 N6        30.12R WCI   3
6HR MIN TEMP:   4; 6HR MAX TEMP:  18;

PHILLIPS       CLOUDY    13   7  79 CALM      30.14R
6HR MIN TEMP:  13; 6HR MAX TEMP:  22;

TOMAHAWK       CLEAR      2  -2  85 CALM      30.13S
6HR MIN TEMP:   2; 6HR MAX TEMP:  21;

MEDFORD        CLEAR     10   5  79 CALM      30.14R
6HR MIN TEMP:  10; 6HR MAX TEMP:  24;

MERRILL        CLEAR      8   4  85 CALM      30.13S
6HR MIN TEMP:   8; 6HR MAX TEMP:  24;

$$

WIZ029-030-035-036-043>047-270700-
CENTRAL WISCONSIN

CITY           SKY/WX    TMP DP  RH WIND       PRES   REMARKS
WAUSAU         CLEAR     16   7  67 NW5       30.13S WCI   9
6HR MIN TEMP:  15; 6HR MAX TEMP:  25;

MOSINEE        CLEAR     18   7  62 NW3       30.15S
MARSHFIELD     CLEAR     18   5  57 N5        30.15S WCI  11
6HR MIN TEMP:  17; 6HR MAX TEMP:  28;

STEVENS POINT  CLEAR     15   4  62 CALM      30.16S
6HR MIN TEMP:  15; 6HR MAX TEMP:  26;

WAUPACA        PTCLDY    22   5  47 N9        30.16S WCI  12
6HR MIN TEMP:  22; 6HR MAX TEMP:  32;

WAUTOMA        CLEAR     21   7  55 N9        30.16R WCI  11
6HR MIN TEMP:  21; 6HR MAX TEMP:  30;

WISC RAPIDS    CLEAR     19   4  51 NE8       30.17S WCI   9
6HR MIN TEMP:  19; 6HR MAX TEMP:  29;

CAMP DOUGLAS   CLEAR     21   9  59 N6        30.17R WCI  13
6HR MIN TEMP:  21; 6HR MAX TEMP:  31; 6HR PCP: TRACE;

$$

WIZ011>013-019>022-031-037>040-048>050-270700-
NORTHEAST WISCONSIN

CITY           SKY/WX    TMP DP  RH WIND       PRES   REMARKS
ANTIGO         CLEAR      7   3  84 CALM      30.11S
6HR MIN TEMP:   7; 6HR MAX TEMP:  22;

SHAWANO        FAIR      19   6  55 CALM      30.16S
6HR MIN TEMP:  19; 6HR MAX TEMP:  30;

OCONTO         CLEAR     18   7  61 N6        30.15S WCI  10
6HR MIN TEMP:  18; 6HR MAX TEMP:  27;

STURGEON BAY   CLEAR     18   7  62 N12       30.15S WCI   5
6HR MIN TEMP:  18; 6HR MAX TEMP:  27;

GREEN BAY      CLEAR     20   7  57 N9        30.15F WCI   9
6HR MIN TEMP:  20; 6HR MAX TEMP:  31;

MANITOWOC      MOCLDY    21   9  59 N16G28    30.14R WCI   7
6HR MIN TEMP:  21; 6HR MAX TEMP:  30; 6HR PCP: TRACE;

APPLETON       PTCLDY    21   5  49 N15       30.14S WCI   8
CLINTONVILLE   CLEAR     19   5  53 CALM      30.16S
OSHKOSH        CLOUDY    23   7  50 N16       30.13R WCI  10
6HR MIN TEMP:  23; 6HR MAX TEMP:  31; 6HR PCP: TRACE;

$$

WIZ032>034-041-042-053>061-270700-
SOUTHWEST WISCONSIN

CITY           SKY/WX    TMP DP  RH WIND       PRES   REMARKS
LA CROSSE      CLEAR     27  12  53 NE12      30.19R WCI  17
6HR MIN TEMP:  27; 6HR MAX TEMP:  35;

SPARTA         CLEAR     23   8  53 N9        30.19R WCI  13
6HR MIN TEMP:  22; 6HR MAX TEMP:  32;

VIROQUA        CLEAR     24  13  65 NE12      30.13R WCI  12
6HR MIN TEMP:  24; 6HR MAX TEMP:  32;

BOSCOBEL       CLOUDY    30  14  51 NE9       30.16R WCI  22
6HR MIN TEMP:  30; 6HR MAX TEMP:  35;

PRAIRIE DU CHI CLOUDY    32  15  50 N7        30.15R WCI  26
6HR MIN TEMP:  32; 6HR MAX TEMP:  33;

PLATTEVILLE    CLOUDY    30  20  67 N8        30.12R WCI  22
6HR MIN TEMP:  30; 6HR MAX TEMP:  33;

$$

WIZ056-057-062-063-064-067-068-270700-
SOUTH CENTRAL WISCONSIN

CITY           SKY/WX    TMP DP  RH WIND       PRES   REMARKS
REEDSBURG      CLEAR     24  10  56 NE6       30.15R WCI  16
6HR MIN TEMP:  24; 6HR MAX TEMP:  32;

BARABOO/DELLS  CLEAR     22   9  56 N3        30.14R
6HR MIN TEMP:  22; 6HR MAX TEMP:  32;

LONE ROCK      PTCLDY    27  11  51 N8        30.16R WCI  19
6HR MIN TEMP:  27; 6HR MAX TEMP:  35;

MINERAL POINT  CLOUDY    30  14  51 N8        30.12R WCI  23
MADISON        CLEAR     25  10  53 N8        30.13R WCI  16
6HR MIN TEMP:  25; 6HR MAX TEMP:  34;

MIDDLETON      CLEAR     28  11  50 N10       30.13R WCI  18
6HR MIN TEMP:  27; 6HR MAX TEMP:  35;

WATERTOWN      CLOUDY    26  14  60 N7        30.11R WCI  19
6HR MIN TEMP:  26; 6HR MAX TEMP:  31;

MONROE         PTCLDY    27  18  69 N8        30.10S WCI  18
JANESVILLE     MOCLDY    30  18  59 N6        30.10S WCI  24
$$

WIZ051-052-058>065-066-070>072-270700-
SOUTHEAST WISCONSIN

CITY           SKY/WX    TMP DP  RH WIND       PRES   REMARKS
MILWAUKEE      LGT SNOW  26  22  84 NE13      30.10S VSB 1   WCI  15
6HR MIN TEMP:  26; 6HR MAX TEMP:  34; 6HR PCP:  0.01;

WAUKESHA       CLOUDY    27  18  69 N10       30.10S WCI  17
MILWAUKEE/TIMM FLURRIES  28  19  69 N10       30.11S WCI  19
RACINE         LGT SNOW  27  22  81 N13       30.11S WCI  16
6HR MIN TEMP:  27; 6HR MAX TEMP:  34; 6HR PCP:  0.01;

BURLINGTON     CLOUDY    27  19  69 N9        30.09S WCI  18
6HR MIN TEMP:  27; 6HR MAX TEMP:  32;

KENOSHA        LGT SNOW  28  25  88 NE12      30.09R FOG     WCI  18
6HR MIN TEMP:  29; 6HR MAX TEMP:  35;

FOND DU LAC    CLOUDY    23  11  60 N16       30.13R WCI  10
6HR MIN TEMP:  23; 6HR MAX TEMP:  31;

SHEBOYGAN      CLOUDY    23  13  65 N15G24    30.11S WCI  10
6HR MIN TEMP:  23; 6HR MAX TEMP:  31; 6HR PCP: TRACE;

WEST BEND      LGT SNOW  23  19  86 N12       30.10S WCI  12
JUNEAU         FAIR      24  13  63 NW7       30.12S WCI  16
6HR MIN TEMP:  24; 6HR MAX TEMP:  30;

$$

LSZ147-162-270700-
LAKE SUPERIOR

STATION/POSITION TIME  TEMP    WIND        PRES    WAVE
                       AIR SEA DIR/SP/G            HT/PER
                 (UTC) (F)     (DEG/KT/KT) (MB)    (FT/S)
DEVILS ISLAND    0600   22      20/ 15/ 19 1025.7R
PORT WING        0540   24      20/ 20/ 23 1024.4S
SAXON HARBOR     0500   25      30/ 19/ 24 1022.7R
$$

LMZ867-665-643>646-270700-
LAKE MICHIGAN

STATION/POSITION TIME  TEMP    WIND        PRES    WAVE


USA.gov is the U.S. government's official web portal to all federal, state and local government web resources and services.